Regional Weather Roundup
Issued by NWS

Home | Current Version | Previous Version | Text Only | Print | Product List | Glossary On
Versions: 1 2 3 4 5 6 7 8 9 10 11 12 13 14 15 16 17 18 19 20 21 22 23 24 25 26 27 28 29 30 31 32 33 34 35 36 37 38 39 40 41 42 43 44 45 46 47 48 49 50
980
ASUS43 KDTX 171201
RWRMI
MICHIGAN HOURLY REGIONAL WEATHER ROUNDUP
NATIONAL WEATHER SERVICE DETROIT/PONTIAC MI
700 AM EST WED JAN 17 2018

NOTE: "FAIR" INDICATES FEW OR NO CLOUDS BELOW 12,000 FEET WITH NO
SIGNIFICANT WEATHER AND/OR OBSTRUCTION TO VISIBILITY.

MIZ047>049-052>055-059>063-066>070-074>076-081>083-171300-
SOUTHEAST LOWER MICHIGAN

CITY           SKY/WX    TMP DP  RH WIND       PRES   REMARKS
ADRIAN         FAIR      -3  -6  87 SW3       30.48R
6HR MIN TEMP:  -3; 6HR MAX TEMP:   6; 6HR PCP: TRACE;

ANN ARBOR      MOCLDY    -4  -7  87 S5        30.45R WCI -15
BAD AXE        FLURRIES   3   0  87 CALM      30.40R
6HR MIN TEMP: -10; 6HR MAX TEMP:   3;

CARO           CLOUDY     3   0  86 CALM      30.41S
DETROIT CITY   FAIR       7   3  84 SW8       30.45S WCI  -6
6HR MIN TEMP:   4; 6HR MAX TEMP:  10;

DETROIT        FAIR       5   1  83 SW7       30.47S WCI  -7
6HR MIN TEMP:   2; 6HR MAX TEMP:   7; 6HR PCP: TRACE;

FLINT          CLOUDY     5   1  83 SW5       30.43S WCI  -4
6HR MIN TEMP:  -7; 6HR MAX TEMP:   5;

GROSSE ILE     FAIR       5   2  88 W7        30.46S WCI  -7
6HR MIN TEMP:   3; 6HR MAX TEMP:   6;

HILLSDALE      CLOUDY     5   1  85 CALM      30.42S
HOWELL         CLOUDY     5   2  90 SW5       30.42S WCI  -4
6HR MIN TEMP:   1; 6HR MAX TEMP:  10;


CITY           SKY/WX    TMP DP  RH WIND       PRES   REMARKS
JACKSON        CLOUDY     4   1  88 SW5       30.44R WCI  -5
6HR MIN TEMP:  -1; 6HR MAX TEMP:   6;

LAMBERTVILLE   FAIR       3   0  86 CALM      30.48S
6HR MIN TEMP:   3; 6HR MAX TEMP:   5;

LANSING        MOCLDY     5   3  91 SW6       30.44S WCI  -6
6HR MIN TEMP:   0; 6HR MAX TEMP:   7;

LAPEER         CLOUDY    -3  -6  84 SW3       30.41F
6HR MIN TEMP:  -3; 6HR MAX TEMP:   9;

MASON          CLOUDY     6   1  78 CALM      30.43S
6HR MIN TEMP:  -2; 6HR MAX TEMP:   9;

MONROE         FAIR       1  -3  80 SW6       30.47S WCI -10
6HR MIN TEMP:   0; 6HR MAX TEMP:   6;

MT. CLEMENS    FAIR       5   3  93 SW6         N/A  WCI  -6
6HR MIN TEMP:   1; 6HR MAX TEMP:   9;

PONTIAC        LGT SNOW   3   0  87 SW6       30.41R FOG     WCI  -8
6HR MIN TEMP:   0; 6HR MAX TEMP:   6; 6HR PCP: TRACE;

PORT HOPE        N/A      7   2  80 SW9       30.36F WCI  -7
6HR MIN TEMP:   2; 6HR MAX TEMP:  11;

PORT HURON     FAIR       0  -4  85 CALM      30.44R
TRI CITIES     CLOUDY     9   5  84 SW7       30.41F WCI  -2
6HR MIN TEMP:   2; 6HR MAX TEMP:   9;

MIDLAND        CLOUDY    10   7  87 SW3       30.40S
6HR MIN TEMP:  -1; 6HR MAX TEMP:  10;

TROY           FAIR       7   4  86 SW5       30.46R WCI  -2
SAGINAW HB     CLOUDY     9   5  85 SW8       30.42S WCI  -4
$$
MIZ043>046-050>051-056>058-064>065-071>073-077>080-171300-
SOUTHWEST LOWER MICHIGAN

CITY           SKY/WX    TMP DP  RH WIND       PRES   REMARKS
BATTLE CREEK   CLOUDY     8   5  87 SW6       30.45R WCI  -2
6HR MIN TEMP:  -4; 6HR MAX TEMP:   8;

BENTON HARBOR  CLOUDY    15  11  83 CALM      30.48R
6HR MIN TEMP:   4; 6HR MAX TEMP:  17; 6HR PCP: TRACE;

BIG RAPIDS     FAIR      14   9  81 SW5       30.36F WCI   6
6HR MIN TEMP:   4; 6HR MAX TEMP:  15;

COLDWATER      CLOUDY     7   5  90 CALM      30.46R
6HR MIN TEMP:  -3; 6HR MAX TEMP:   7;

FREMONT        FAIR      11   7  82 S5        30.40S WCI   3
6HR MIN TEMP:  11; 6HR MAX TEMP:  16;

HOLLAND        MOCLDY    14   9  80 S6        30.45R WCI   5
6HR MIN TEMP:   8; 6HR MAX TEMP:  16; 6HR PCP: TRACE;

GRAND RAPIDS   FLURRIES  15   8  73 SW8       30.43S WCI   4
6HR MIN TEMP:   2; 6HR MAX TEMP:  15; 6HR PCP: TRACE;

IONIA          FLURRIES  12   9  89 SW8       30.42S WCI   0
6HR MIN TEMP:   0; 6HR MAX TEMP:  12;

KALAMAZOO      CLOUDY     9   6  88 S5        30.46R FOG     WCI   1
6HR MIN TEMP:  -3; 6HR MAX TEMP:   9;

LUDINGTON      MOCLDY    21  17  83 W7G16     30.39S WCI  12
6HR MIN TEMP:  16; 6HR MAX TEMP:  22;

MARSHALL       CLOUDY     5   1  86 SW3       30.45R
6HR MIN TEMP:  -5; 6HR MAX TEMP:   5;

MOUNT PLEASANT MOCLDY    15   7  70 SW7       30.38F WCI   6
6HR MIN TEMP:   1; 6HR MAX TEMP:  16;

MUSKEGON       FAIR      23  11  60 W12       30.43S WCI  12
6HR MIN TEMP:  15; 6HR MAX TEMP:  24; 6HR PCP:  0.01;

SOUTH HAVEN    CLOUDY    16  13  88 CALM      30.47R
$$
MIZ016>042-171300-
NORTHERN LOWER MICHIGAN

CITY           SKY/WX    TMP DP  RH WIND       PRES   REMARKS
ALPENA         CLOUDY     8   5  87 S5        30.30F WCI   0
6HR MIN TEMP:  -7; 6HR MAX TEMP:   8; 6HR PCP: TRACE;

BEAVER ISLAND  MOCLDY    22  13  67 SW20G25   30.25F WCI   7
6HR MIN TEMP:  19; 6HR MAX TEMP:  22;

BELLAIRE       FAIR      18  15  89 S7        30.31F WCI   8
6HR MIN TEMP:   7; 6HR MAX TEMP:  18;

CADILLAC       FAIR      12  10  89 SW7       30.29F WCI   2
CHARLEVOIX     MOCLDY    23  14  68 SW13G24   30.30F WCI  12
6HR MIN TEMP:  13; 6HR MAX TEMP:  24;

FRANKFORT      FAIR      23  14  69 W10G17    30.35S WCI  12
GAYLORD        CLOUDY    13  12  96 SW13      30.23F WCI  -2
6HR MIN TEMP:  -1; 6HR MAX TEMP:  13; 6HR PCP: TRACE;

GRAYLING       CLOUDY    14   9  81 SW6       30.29S WCI   5
6HR MIN TEMP:  -6; 6HR MAX TEMP:  14;

HARBOR SPRINGS CLOUDY    21  16  81 SW10G17   30.25F WCI  10
HOUGHTON LAKE  CLOUDY    12   8  84 SW7       30.31F WCI   1
6HR MIN TEMP:  -3; 6HR MAX TEMP:  12; 6HR PCP: TRACE;

MANISTEE       MOCLDY    21  13  71 W16G26    30.37S WCI   7
OSCODA         MOCLDY     2  -3  80 SW9       30.35S WCI -13
6HR MIN TEMP:  -7; 6HR MAX TEMP:   6;

PELLSTON       CLOUDY    23  14  68 W14G22    30.24F WCI  11
6HR MIN TEMP:  -1; 6HR MAX TEMP:  23; 6HR PCP: TRACE;

ROGERS CITY    CLOUDY    14  10  84 SW12      30.27F WCI   0
TRAVERSE CITY  MOCLDY    18  12  77 SW6       30.32S WCI  10
6HR MIN TEMP:  15; 6HR MAX TEMP:  18; 6HR PCP: TRACE;

$$
MIZ007>008-015-171300-
EASTERN UPPER MICHIGAN

CITY           SKY/WX    TMP DP  RH WIND       PRES   REMARKS
KINROSS        CLOUDY    15  12  88 SW6       30.19F WCI   6
6HR MIN TEMP:   9; 6HR MAX TEMP:  15;

MACKINAC ISLAN CLOUDY    22  15  74 SW17G28   30.22S WCI   7
6HR MIN TEMP:  14; 6HR MAX TEMP:  22;

NEWBERRY       CLOUDY    11   7  81 S16       30.15F WCI  -5
6HR MIN TEMP:   9; 6HR MAX TEMP:  12;

S. S. MARIE    FAIR      17  10  74 SW10      30.17F WCI   5
6HR MIN TEMP:  12; 6HR MAX TEMP:  17;

MUNISING         N/A     11   5  77 SW8       30.19S WCI  -1
6HR MIN TEMP:  10; 6HR MAX TEMP:  13;

$$
MIZ004>006-011>014-085-171300-
CENTRAL UPPER MICHIGAN

CITY           SKY/WX    TMP DP  RH WIND       PRES   REMARKS
MANISTIQUE     MOCLDY    10   5  81 SW6       30.23F WCI   0
6HR MIN TEMP:   8; 6HR MAX TEMP:  11;

ESCANABA       CLOUDY     7   3  84 SW8       30.26F WCI  -6
6HR MIN TEMP:   4; 6HR MAX TEMP:   8;

MENOMINEE      FAIR       5   2  87 W8        30.33F WCI  -8
6HR MIN TEMP:   5; 6HR MAX TEMP:   7;

SAWYER-GWINN   MOCLDY    10   3  72 SW13      30.15F WCI  -5
$$
MIZ001>003-009>011-084-171300-
WESTERN UPPER MICHIGAN

CITY           SKY/WX    TMP DP  RH WIND       PRES   REMARKS
IRON MOUNTAIN  MOCLDY    12   1  61 W14G23    30.19F WCI  -3
6HR MIN TEMP:   4; 6HR MAX TEMP:  12;

HOUGHTON       FAIR      15   3  59 W24G31    30.08F HAZE    WCI  -4
6HR MIN TEMP:  14; 6HR MAX TEMP:  16; 6HR PCP: TRACE;

COPPER HARBOR    N/A     20  10  65 VRB7G21   30.05F WCI  11
6HR MIN TEMP:  18; 6HR MAX TEMP:  21;

IRONWOOD       FAIR       8  -1  66 SW15      30.19F WCI  -9
6HR MIN TEMP:   7; 6HR MAX TEMP:   9;

$$

ABBREVIATIONS USED IN REMARKS
   TC - TEMPERATURE IN CELSIUS
  WCI - WIND CHILL INDEX
   HX - HEAT INDEX
  VSB - VISIBILITY





USA.gov is the U.S. government's official web portal to all federal, state and local government web resources and services.